Bedford, MA

12:36 PM EDT on April 19, 2018 (GMT -0400)
Hanscom

Weather History for KBED - October, 2012

Change the Weather History Date:

Friday, October 19, 2012

  Actual Average Record
Temperature  
Mean Temperature 56 °F -  
Max Temperature 66 °F 59 °F 82 °F (1963)
Min Temperature 46 °F 38 °F 20 °F (1974)
Degree Days  
Heating Degree Days 9    
Growing Degree Days 6 (Base 50)    
Moisture  
Dew Point 57 °F    
Average Humidity 91    
Maximum Humidity 100    
Minimum Humidity 65    
Precipitation  
Precipitation 0.20 in - - ()
Sea Level Pressure  
Sea Level Pressure 29.89 in    
Wind  
Wind Speed 6 mph (ESE)    
Max Wind Speed 20 mph    
Max Gust Speed 24 mph    
Visibility 7 miles    
Events Rain , Thunderstorm    
Averages and records for this station are not official NWS values.
T = Trace of Precipitation, MM = Missing Value Source: NWS Daily Summary

Daily Weather History Graph

Daily Weather History Graph

Search for Another Location

Airport or City:

Astronomy

Oct. 19, 2012 Rise Set
Actual Time 7:03 AM EDT 5:56 PM EDT
Civil Twilight 6:34 AM EDT 6:24 PM EDT
Nautical Twilight 6:02 AM EDT 6:57 PM EDT
Astronomical Twilight 5:29 AM EDT 7:29 PM EDT
Moon 11:47 AM EDT 9:26 PM EDT
Length of Visible Light 11h 49m
Length of Day
10h 52m
Waxing Crescent, 23% of the Moon is Illuminated
Oct 19
Waxing Crescent
Oct 21
First Quarter
Oct 29
Full
Nov 6
Last Quarter
Nov 13
New

Hourly Weather History & Observations

Time (EDT) Temp. Dew Point Humidity Pressure Visibility Wind Dir Wind Speed Gust Speed Precip Events Conditions
12:56 AM 46.4 °F 44.6 °F 93% 30.06 in 10.0 mi Calm Calm - N/A   Clear
1:56 AM 46.9 °F 44.1 °F 90% 30.10 in 10.0 mi Calm Calm - N/A   Overcast
2:32 AM 48.2 °F 46.4 °F 93% 30.07 in 9.0 mi Calm Calm - N/A   Overcast
2:41 AM 48.2 °F 46.4 °F 93% 30.07 in 9.0 mi Calm Calm - N/A   Overcast
2:56 AM 48.0 °F 46.9 °F 96% 30.10 in 8.0 mi ENE 3.5 mph - N/A   Overcast
3:56 AM 50.0 °F 48.9 °F 96% 30.08 in 6.0 mi Calm Calm - N/A   Overcast
4:48 AM 51.8 °F 50.0 °F 94% 30.02 in 4.0 mi ENE 6.9 mph - 0.01 in Rain Light Rain
4:56 AM 52.0 °F 51.1 °F 97% 30.06 in 5.0 mi ENE 4.6 mph - 0.01 in Rain Light Rain
5:10 AM 51.8 °F 51.8 °F 100% 30.02 in 6.0 mi Calm Calm - 0.00 in   Overcast
5:48 AM 53.6 °F 51.8 °F 94% 30.01 in 7.0 mi ENE 4.6 mph - 0.01 in   Overcast
5:56 AM 53.1 °F 52.0 °F 96% 30.06 in 7.0 mi Calm Calm - 0.01 in   Overcast
6:10 AM 53.6 °F 51.8 °F 94% 30.02 in 7.0 mi Calm Calm - 0.00 in Rain Light Rain
6:36 AM 53.6 °F 51.8 °F 94% 30.01 in 4.0 mi NE 3.5 mph - 0.01 in Rain Light Rain
6:56 AM 54.0 °F 53.1 °F 97% 30.05 in 4.0 mi North 3.5 mph - 0.01 in   Overcast
7:56 AM 55.0 °F 53.1 °F 93% 30.05 in 6.0 mi NE 3.5 mph - 0.00 in   Overcast
8:56 AM 57.0 °F 55.0 °F 93% 30.05 in 10.0 mi NE 3.5 mph - N/A   Overcast
9:56 AM 59.0 °F 55.9 °F 90% 30.04 in 10.0 mi East 5.8 mph - N/A   Overcast
10:56 AM 63.0 °F 57.0 °F 81% 30.00 in 10.0 mi East 11.5 mph - N/A   Scattered Clouds
11:56 AM 64.0 °F 54.0 °F 70% 29.99 in 10.0 mi SE 15.0 mph 21.9 mph 0.00 in   Overcast
12:56 PM 64.9 °F 53.1 °F 65% 29.94 in 10.0 mi ESE 12.7 mph 20.7 mph N/A   Overcast
1:56 PM 64.9 °F 57.0 °F 75% 29.92 in 10.0 mi ESE 11.5 mph - N/A   Overcast
2:06 PM 64.4 °F 59.0 °F 83% 29.88 in 5.0 mi ESE 11.5 mph 23.0 mph 0.00 in Rain Light Rain
2:27 PM 64.4 °F 59.0 °F 83% 29.87 in 10.0 mi ESE 17.3 mph - 0.00 in   Overcast
2:56 PM 64.4 °F 57.2 °F 77% 29.86 in 10.0 mi East 15.0 mph - N/A   Overcast
3:11 PM 62.6 °F 57.2 °F 82% 29.86 in 1.8 mi East 19.6 mph 24.2 mph 0.03 in Rain Heavy Rain
3:29 PM 60.8 °F 59.0 °F 94% 29.86 in 3.0 mi East 11.5 mph - 0.06 in Rain Light Rain
3:38 PM 60.8 °F 59.0 °F 94% 29.85 in 10.0 mi East 12.7 mph - 0.06 in   Overcast
3:56 PM 62.1 °F 60.1 °F 93% 29.88 in 4.0 mi East 11.5 mph - 0.06 in   Overcast
4:03 PM 62.6 °F 60.8 °F 94% 29.84 in 10.0 mi East 11.5 mph - N/A   Overcast
4:07 PM 62.6 °F 60.8 °F 94% 29.84 in 10.0 mi East 10.4 mph - N/A   Overcast
4:24 PM 62.6 °F 60.8 °F 94% 29.83 in 10.0 mi East 13.8 mph - N/A   Overcast
4:56 PM 62.6 °F 60.8 °F 94% 29.82 in 8.0 mi East 11.5 mph - N/A   Overcast
5:10 PM 62.6 °F 60.8 °F 94% 29.81 in 9.0 mi East 12.7 mph - N/A   Overcast
5:56 PM 62.1 °F 60.1 °F 93% 29.82 in 2.0 mi East 16.1 mph - 0.01 in Rain Light Rain
6:37 PM 62.6 °F 60.8 °F 94% 29.75 in 2.0 mi East 16.1 mph 23.0 mph 0.03 in Rain , Thunderstorm Light Thunderstorms and Rain
6:56 PM 62.1 °F 60.1 °F 93% 29.79 in 2.0 mi ESE 11.5 mph - 0.04 in Rain , Thunderstorm Light Thunderstorms and Rain
7:03 PM 62.6 °F 60.8 °F 94% 29.74 in 3.0 mi East 13.8 mph 18.4 mph 0.01 in Rain , Thunderstorm Thunderstorms and Rain
7:28 PM 62.6 °F 60.8 °F 94% 29.74 in 3.0 mi ESE 11.5 mph - 0.04 in Rain Light Rain
7:56 PM 62.1 °F 61.0 °F 96% 29.77 in 3.0 mi ESE 10.4 mph - 0.05 in Rain Light Rain
8:03 PM 62.6 °F 60.8 °F 94% 29.73 in 5.0 mi ESE 6.9 mph - 0.00 in Rain Light Rain
8:43 PM 62.6 °F 62.6 °F 100% 29.72 in 2.5 mi SE 4.6 mph - 0.01 in Rain Light Rain
8:56 PM 64.0 °F 63.0 °F 96% 29.76 in 2.5 mi SE 4.6 mph - 0.01 in   Overcast
9:03 PM 64.4 °F 62.6 °F 94% 29.72 in 3.0 mi SE 4.6 mph - N/A   Overcast
9:56 PM 66.2 °F 64.4 °F 94% 29.73 in 5.0 mi South 9.2 mph - N/A   Overcast
10:08 PM 66.2 °F 64.4 °F 94% 29.73 in 10.0 mi South 10.4 mph - N/A   Overcast
10:56 PM 66.0 °F 64.0 °F 93% 29.78 in 10.0 mi South 6.9 mph - N/A   Overcast
11:03 PM 66.2 °F 64.4 °F 94% 29.74 in 10.0 mi South 8.1 mph - N/A   Overcast
11:16 PM 66.2 °F 64.4 °F 94% 29.74 in 9.0 mi SSE 5.8 mph - N/A   Overcast
11:42 PM 66.2 °F 64.4 °F 94% 29.74 in 9.0 mi SSE 6.9 mph - N/A   Overcast
11:56 PM 66.0 °F 64.0 °F 93% 29.78 in 9.0 mi SSE 6.9 mph - N/A   Overcast